JBA25 KSAN-KTPA

Flight info

Callsign JBA25
Flight time 3h 31m
Altitude 37000
Route ZZOOO4 GBN TFD SKTTR Q4 ELP J86 CUZZZ/N0517F390 J86 LEV Y280 CHRGE RAYZZ3
Aircraft C750/M-SBDE3FGHRWXY/S

Departure

Time 2026-04-22 20:13
Airport San Diego International Airport (KSAN)

Arrival

Time 2026-04-22 23:44
Airport Tampa International Airport (KTPA)
Time Latitude Longitude Altitude Speed Heading
2026-04-22 19:52 32.73405 -117.17874 22 ft 0 kts 108°
2026-04-22 20:09 32.73404 -117.17874 21 ft 1 kts 111°
2026-04-22 20:09 32.73386 -117.17869 18 ft 6 kts 201°
2026-04-22 20:10 32.73369 -117.17911 17 ft 7 kts 253°
2026-04-22 20:10 32.73313 -117.17959 14 ft 14 kts 195°
2026-04-22 20:10 32.73251 -117.17976 12 ft 13 kts 175°
2026-04-22 20:10 32.73210 -117.17889 11 ft 12 kts 105°
2026-04-22 20:11 32.73187 -117.17795 12 ft 12 kts 107°
2026-04-22 20:11 32.73166 -117.17705 13 ft 11 kts 105°
2026-04-22 20:11 32.73141 -117.17607 11 ft 15 kts 106°
2026-04-22 20:11 32.73072 -117.17532 12 ft 12 kts 146°
2026-04-22 20:12 32.73019 -117.17561 12 ft 11 kts 268°
2026-04-22 20:12 32.73074 -117.17801 10 ft 70 kts 286°
2026-04-22 20:12 32.73284 -117.18668 31 ft 136 kts 286°
2026-04-22 20:12 32.73519 -117.19735 591 ft 135 kts 286°
2026-04-22 20:13 32.73704 -117.20866 1108 ft 146 kts 285°
2026-04-22 20:13 32.73995 -117.22061 1626 ft 156 kts 288°
2026-04-22 20:13 32.74343 -117.23313 2213 ft 162 kts 289°
2026-04-22 20:13 32.74710 -117.24592 2929 ft 166 kts 288°
2026-04-22 20:14 32.75066 -117.25922 3693 ft 171 kts 287°
2026-04-22 20:14 32.75393 -117.27270 4367 ft 174 kts 285°
2026-04-22 20:14 32.75701 -117.28673 5008 ft 178 kts 286°
2026-04-22 20:14 32.76008 -117.30102 5678 ft 179 kts 286°
2026-04-22 20:15 32.76309 -117.31524 6390 ft 177 kts 286°
2026-04-22 20:15 32.76346 -117.33020 6923 ft 187 kts 258°
2026-04-22 20:15 32.75736 -117.34399 7468 ft 202 kts 232°
2026-04-22 20:15 32.74472 -117.35239 8037 ft 221 kts 195°
2026-04-22 20:16 32.72922 -117.35032 8783 ft 233 kts 158°
2026-04-22 20:16 32.71647 -117.33873 9713 ft 230 kts 139°
2026-04-22 20:16 32.70478 -117.32509 10295 ft 240 kts 139°
2026-04-22 20:16 32.69254 -117.31140 10937 ft 241 kts 142°
2026-04-22 20:17 32.67994 -117.29850 11711 ft 237 kts 143°
2026-04-22 20:17 32.66771 -117.28553 12472 ft 234 kts 142°
2026-04-22 20:17 32.65583 -117.27244 13193 ft 232 kts 142°
2026-04-22 20:17 32.64402 -117.25950 13892 ft 230 kts 143°
2026-04-22 20:18 32.63332 -117.24524 14425 ft 240 kts 120°
2026-04-22 20:18 32.62946 -117.22578 14937 ft 244 kts 97°
2026-04-22 20:18 32.62783 -117.20585 15563 ft 241 kts 97°
2026-04-22 20:18 32.62609 -117.18615 16170 ft 241 kts 98°
2026-04-22 20:19 32.62420 -117.16600 16518 ft 253 kts 98°
2026-04-22 20:19 32.62223 -117.14454 16800 ft 270 kts 98°
2026-04-22 20:19 32.62017 -117.12174 17095 ft 286 kts 98°
2026-04-22 20:19 32.62075 -117.09746 17243 ft 308 kts 75°
2026-04-22 20:20 32.62823 -117.07260 17305 ft 332 kts 65°
2026-04-22 20:20 32.63779 -117.04651 17305 ft 357 kts 65°
2026-04-22 20:20 32.64737 -117.01820 17300 ft 382 kts 68°
2026-04-22 20:20 32.65680 -116.98776 17293 ft 404 kts 69°
2026-04-22 20:21 32.66529 -116.95534 17276 ft 422 kts 79°
2026-04-22 20:21 32.66714 -116.92025 17644 ft 427 kts 89°
2026-04-22 20:21 32.66792 -116.88521 18213 ft 430 kts 89°
2026-04-22 20:21 32.66893 -116.84951 18666 ft 435 kts 89°
2026-04-22 20:22 32.66984 -116.81348 19123 ft 439 kts 89°
2026-04-22 20:22 32.67059 -116.77716 19602 ft 442 kts 90°
2026-04-22 20:22 32.67100 -116.74049 20040 ft 446 kts 92°
2026-04-22 20:22 32.67037 -116.70356 20538 ft 449 kts 92°
2026-04-22 20:23 32.66974 -116.66640 21022 ft 452 kts 92°
2026-04-22 20:23 32.66919 -116.62886 21526 ft 456 kts 92°
2026-04-22 20:23 32.66862 -116.59106 21994 ft 460 kts 92°
2026-04-22 20:23 32.66798 -116.55292 22466 ft 463 kts 92°
2026-04-22 20:24 32.66730 -116.51450 22929 ft 468 kts 92°
2026-04-22 20:24 32.66666 -116.47572 23384 ft 472 kts 92°
2026-04-22 20:24 32.66604 -116.43665 23836 ft 476 kts 92°
2026-04-22 20:24 32.66828 -116.39725 24172 ft 481 kts 84°
2026-04-22 20:25 32.67218 -116.35767 24553 ft 485 kts 84°
2026-04-22 20:25 32.67569 -116.31774 24923 ft 489 kts 85°
2026-04-22 20:25 32.67907 -116.27797 25294 ft 493 kts 84°
2026-04-22 20:25 32.68277 -116.23739 25658 ft 496 kts 84°
2026-04-22 20:26 32.68660 -116.19658 26075 ft 499 kts 84°
2026-04-22 20:26 32.69028 -116.15542 26459 ft 503 kts 84°
2026-04-22 20:26 32.69387 -116.11400 26796 ft 507 kts 84°
2026-04-22 20:26 32.69758 -116.07224 27175 ft 510 kts 84°
2026-04-22 20:27 32.70137 -116.03017 27507 ft 515 kts 84°
2026-04-22 20:27 32.70521 -115.98771 27839 ft 519 kts 83°
2026-04-22 20:27 32.70924 -115.94500 28234 ft 522 kts 83°
2026-04-22 20:27 32.71329 -115.90209 28667 ft 524 kts 83°
2026-04-22 20:28 32.71723 -115.85887 29017 ft 528 kts 84°
2026-04-22 20:28 32.72115 -115.81535 29364 ft 532 kts 84°
2026-04-22 20:28 32.72517 -115.77150 29724 ft 535 kts 83°
2026-04-22 20:28 32.72924 -115.72735 30076 ft 539 kts 83°
2026-04-22 20:29 32.73325 -115.68294 30319 ft 543 kts 83°
2026-04-22 20:29 32.73721 -115.63872 30520 ft 549 kts 83°
2026-04-22 20:29 32.74132 -115.59301 30825 ft 551 kts 83°
2026-04-22 20:29 32.74535 -115.54824 31124 ft 553 kts 83°
2026-04-22 20:30 32.74906 -115.50277 31501 ft 554 kts 86°
2026-04-22 20:30 32.75022 -115.45696 31804 ft 556 kts 89°
2026-04-22 20:30 32.75112 -115.41097 32166 ft 558 kts 88°
2026-04-22 20:30 32.75228 -115.36480 32517 ft 560 kts 88°
2026-04-22 20:31 32.75353 -115.31855 32870 ft 562 kts 88°
2026-04-22 20:31 32.75460 -115.27210 33250 ft 563 kts 88°
2026-04-22 20:31 32.75554 -115.22551 33600 ft 565 kts 88°
2026-04-22 20:31 32.75658 -115.17876 33955 ft 567 kts 88°
2026-04-22 20:32 32.75769 -115.13186 34285 ft 569 kts 88°
2026-04-22 20:32 32.75873 -115.08490 34687 ft 568 kts 88°
2026-04-22 20:32 32.75967 -115.03805 35119 ft 567 kts 88°
2026-04-22 20:32 32.76063 -114.99121 35546 ft 566 kts 88°
2026-04-22 20:33 32.76163 -114.94459 36007 ft 564 kts 88°
2026-04-22 20:33 32.76258 -114.89799 36451 ft 563 kts 88°
2026-04-22 20:33 32.76348 -114.85154 36882 ft 563 kts 89°
2026-04-22 20:33 32.76437 -114.80488 37040 ft 569 kts 89°
2026-04-22 20:34 32.76529 -114.75744 37039 ft 578 kts 89°
2026-04-22 20:34 32.76709 -114.66052 37056 ft 595 kts 89°
2026-04-22 20:35 32.76882 -114.56082 37051 ft 611 kts 89°
2026-04-22 20:35 32.77009 -114.45980 37046 ft 618 kts 89°
2026-04-22 20:36 32.77154 -114.35760 36992 ft 619 kts 89°
2026-04-22 20:36 32.77275 -114.25553 37028 ft 618 kts 89°
2026-04-22 20:37 32.77396 -114.15341 37029 ft 618 kts 89°
2026-04-22 20:37 32.77505 -114.05137 37036 ft 618 kts 89°
2026-04-22 20:38 32.77854 -113.94936 37011 ft 617 kts 81°
2026-04-22 20:38 32.79386 -113.84922 37017 ft 616 kts 77°
2026-04-22 20:39 32.80784 -113.74868 37019 ft 617 kts 80°
2026-04-22 20:39 32.82195 -113.64946 37008 ft 598 kts 77°
2026-04-22 20:40 32.83617 -113.55066 37005 ft 613 kts 79°
2026-04-22 20:40 32.84995 -113.44998 37017 ft 619 kts 78°
2026-04-22 20:41 32.86445 -113.34896 37011 ft 620 kts 79°
2026-04-22 20:41 32.87815 -113.24762 37014 ft 620 kts 78°
2026-04-22 20:42 32.89243 -113.14639 37016 ft 621 kts 79°
2026-04-22 20:42 32.90597 -113.04571 37010 ft 618 kts 79°
2026-04-22 20:43 32.91994 -112.94471 37018 ft 619 kts 79°
2026-04-22 20:43 32.93350 -112.84343 37027 ft 619 kts 79°
2026-04-22 20:44 32.94720 -112.74237 37033 ft 616 kts 79°
2026-04-22 20:44 32.95443 -112.64072 37012 ft 619 kts 91°
2026-04-22 20:45 32.94521 -112.53896 37017 ft 618 kts 99°
2026-04-22 20:45 32.93394 -112.43744 36996 ft 618 kts 95°
2026-04-22 20:46 32.92097 -112.28525 36992 ft 618 kts 98°
2026-04-22 20:46 32.91164 -112.18365 36989 ft 617 kts 95°
2026-04-22 20:47 32.90240 -112.08220 36999 ft 614 kts 98°
2026-04-22 20:47 32.89253 -111.98126 37011 ft 614 kts 96°
2026-04-22 20:48 32.87954 -111.88104 37016 ft 613 kts 107°
2026-04-22 20:48 32.85209 -111.78544 37043 ft 610 kts 114°
2026-04-22 20:49 32.82468 -111.69100 37027 ft 610 kts 108°
2026-04-22 20:49 32.79918 -111.59502 36995 ft 608 kts 112°
2026-04-22 20:50 32.77123 -111.49987 36989 ft 611 kts 110°
2026-04-22 20:50 32.74532 -111.40376 36996 ft 610 kts 111°
2026-04-22 20:51 32.71985 -111.31682 37005 ft 610 kts 111°
2026-04-22 20:51 32.69343 -111.22093 37003 ft 610 kts 110°
2026-04-22 20:52 32.66588 -111.12571 37012 ft 610 kts 111°
2026-04-22 20:52 32.63905 -111.03041 36983 ft 610 kts 110°
2026-04-22 20:53 32.61160 -110.93506 36969 ft 610 kts 111°
2026-04-22 20:53 32.58435 -110.83973 36962 ft 610 kts 110°
2026-04-22 20:54 32.55714 -110.74526 36964 ft 608 kts 111°
2026-04-22 20:54 32.52974 -110.65040 36964 ft 608 kts 110°
2026-04-22 20:55 32.50214 -110.55494 36954 ft 608 kts 111°
2026-04-22 20:55 32.47472 -110.46074 36969 ft 610 kts 110°
2026-04-22 20:56 32.44718 -110.36607 36955 ft 608 kts 110°
2026-04-22 20:56 32.41951 -110.27158 36950 ft 608 kts 110°
2026-04-22 20:57 32.39183 -110.17706 36948 ft 608 kts 110°
2026-04-22 20:57 32.36403 -110.08270 36949 ft 606 kts 111°
2026-04-22 20:58 32.33629 -109.98862 36940 ft 606 kts 111°
2026-04-22 20:58 32.30838 -109.89445 36932 ft 608 kts 110°
2026-04-22 20:59 32.28688 -109.79807 36918 ft 608 kts 98°
2026-04-22 20:59 32.27866 -109.71586 36924 ft 606 kts 95°
2026-04-22 21:00 32.26634 -109.61724 36923 ft 606 kts 99°
2026-04-22 21:00 32.25428 -109.51855 36923 ft 608 kts 96°
2026-04-22 21:01 32.24250 -109.41988 36928 ft 603 kts 98°
2026-04-22 21:01 32.22998 -109.32187 36923 ft 603 kts 97°
2026-04-22 21:02 32.21825 -109.22373 36914 ft 604 kts 98°
2026-04-22 21:02 32.20557 -109.12569 36916 ft 604 kts 97°
2026-04-22 21:03 32.19359 -109.02752 36904 ft 605 kts 97°
2026-04-22 21:03 32.18095 -108.92997 36899 ft 605 kts 97°
2026-04-22 21:04 32.16867 -108.83185 36898 ft 605 kts 97°
2026-04-22 21:04 32.15594 -108.73378 37038 ft 603 kts 98°
2026-04-22 21:05 32.14342 -108.63588 37027 ft 603 kts 98°
2026-04-22 21:05 32.13065 -108.53801 36994 ft 603 kts 98°
2026-04-22 21:06 32.11791 -108.44016 36950 ft 603 kts 98°
2026-04-22 21:06 32.10506 -108.34259 36904 ft 601 kts 98°
2026-04-22 21:07 32.09220 -108.24516 36893 ft 601 kts 98°
2026-04-22 21:07 32.07931 -108.14832 36902 ft 602 kts 98°
2026-04-22 21:08 32.06627 -108.05087 36899 ft 602 kts 98°
2026-04-22 21:08 32.05316 -107.95348 36893 ft 601 kts 98°
2026-04-22 21:09 32.03998 -107.85616 36891 ft 601 kts 98°
2026-04-22 21:09 32.02670 -107.75872 36975 ft 601 kts 98°
2026-04-22 21:10 32.01343 -107.66183 36960 ft 598 kts 98°
2026-04-22 21:10 32.00010 -107.56511 36928 ft 598 kts 98°
2026-04-22 21:11 31.98669 -107.46836 36887 ft 598 kts 98°
2026-04-22 21:11 31.97322 -107.37178 36871 ft 595 kts 99°
2026-04-22 21:12 31.95976 -107.27578 36870 ft 594 kts 99°
2026-04-22 21:12 31.94630 -107.18033 36852 ft 595 kts 98°
2026-04-22 21:13 31.93266 -107.08411 36857 ft 596 kts 98°
2026-04-22 21:13 31.91898 -106.98823 36848 ft 590 kts 99°
2026-04-22 21:14 31.90531 -106.89290 36846 ft 591 kts 99°
2026-04-22 21:14 31.89846 -106.84529 37033 ft 591 kts 99°
2026-04-22 21:14 31.89157 -106.79756 37058 ft 591 kts 99°
2026-04-22 21:15 31.87775 -106.70224 37059 ft 591 kts 99°
2026-04-22 21:15 31.86393 -106.60746 37063 ft 587 kts 99°
2026-04-22 21:16 31.85009 -106.51294 37020 ft 587 kts 99°
2026-04-22 21:16 31.83616 -106.41844 37035 ft 586 kts 99°
2026-04-22 21:17 31.82216 -106.32390 37009 ft 583 kts 99°
2026-04-22 21:17 31.80426 -106.23180 37010 ft 583 kts 106°
2026-04-22 21:18 31.78039 -106.13991 36961 ft 584 kts 106°
2026-04-22 21:18 31.75864 -106.04867 36915 ft 584 kts 105°
2026-04-22 21:19 31.73537 -105.95745 36865 ft 577 kts 106°
2026-04-22 21:19 31.71313 -105.86675 36870 ft 578 kts 105°
2026-04-22 21:20 31.69024 -105.77617 36876 ft 579 kts 106°
2026-04-22 21:20 31.66759 -105.68553 36877 ft 579 kts 106°
2026-04-22 21:21 31.64493 -105.59579 38094 ft 557 kts 106°
2026-04-22 21:21 31.63398 -105.55267 38805 ft 547 kts 106°
2026-04-22 21:21 31.62317 -105.50963 38861 ft 553 kts 106°
2026-04-22 21:22 31.60097 -105.42194 38866 ft 568 kts 106°
2026-04-22 21:22 31.57814 -105.33235 38864 ft 576 kts 106°
2026-04-22 21:23 31.55519 -105.24229 38883 ft 575 kts 107°
2026-04-22 21:23 31.53218 -105.15250 38882 ft 575 kts 107°
2026-04-22 21:24 31.50912 -105.06266 38882 ft 576 kts 107°
2026-04-22 21:24 31.48597 -104.97287 38891 ft 576 kts 107°
2026-04-22 21:25 31.46293 -104.88371 38872 ft 574 kts 107°
2026-04-22 21:25 31.43968 -104.79407 38874 ft 576 kts 107°
2026-04-22 21:26 31.41632 -104.70429 38881 ft 576 kts 107°
2026-04-22 21:26 31.39290 -104.61454 38876 ft 576 kts 107°
2026-04-22 21:27 31.36942 -104.52486 38879 ft 576 kts 107°
2026-04-22 21:27 31.34586 -104.43514 38881 ft 576 kts 107°
2026-04-22 21:28 31.32224 -104.34550 38878 ft 577 kts 107°
2026-04-22 21:28 31.29856 -104.25590 38879 ft 576 kts 107°
2026-04-22 21:29 31.27488 -104.16658 38880 ft 572 kts 107°
2026-04-22 21:29 31.25121 -104.07759 38883 ft 574 kts 107°
2026-04-22 21:30 31.22757 -103.98895 38867 ft 575 kts 107°
2026-04-22 21:30 31.20371 -103.89979 38859 ft 575 kts 107°
2026-04-22 21:31 31.17988 -103.81098 38876 ft 566 kts 107°
2026-04-22 21:31 31.15622 -103.72314 38873 ft 567 kts 107°
2026-04-22 21:32 31.13249 -103.63521 38870 ft 568 kts 107°
2026-04-22 21:32 31.10868 -103.54733 38871 ft 568 kts 107°
2026-04-22 21:33 31.08485 -103.45960 38846 ft 565 kts 107°
2026-04-22 21:33 31.06103 -103.37221 38846 ft 566 kts 107°
2026-04-22 21:34 31.03714 -103.28475 38844 ft 566 kts 108°
2026-04-22 21:34 31.01316 -103.19728 38833 ft 566 kts 108°
2026-04-22 21:35 30.98914 -103.10991 38834 ft 565 kts 108°
2026-04-22 21:35 30.96521 -103.02313 38842 ft 563 kts 108°
2026-04-22 21:36 30.94691 -102.93518 38831 ft 562 kts 97°
2026-04-22 21:36 30.93968 -102.84456 38835 ft 562 kts 94°
2026-04-22 21:37 30.93498 -102.79934 38965 ft 563 kts 97°
2026-04-22 21:37 30.92945 -102.75427 38958 ft 562 kts 97°
2026-04-22 21:37 30.92088 -102.66397 38920 ft 561 kts 95°
2026-04-22 21:38 30.91137 -102.57382 38892 ft 561 kts 97°
2026-04-22 21:38 30.90212 -102.48349 38856 ft 562 kts 95°
2026-04-22 21:39 30.89278 -102.39311 38879 ft 562 kts 96°
2026-04-22 21:39 30.88321 -102.30257 38891 ft 563 kts 96°
2026-04-22 21:40 30.87379 -102.21203 38894 ft 563 kts 96°
2026-04-22 21:40 30.86409 -102.12153 38903 ft 563 kts 96°
2026-04-22 21:41 30.85459 -102.03170 38915 ft 563 kts 96°
2026-04-22 21:41 30.84481 -101.94132 38913 ft 563 kts 96°
2026-04-22 21:42 30.83508 -101.85087 38919 ft 563 kts 96°
2026-04-22 21:42 30.82520 -101.76052 38918 ft 563 kts 96°
2026-04-22 21:43 30.81533 -101.67019 38933 ft 563 kts 96°
2026-04-22 21:43 30.80534 -101.57984 38929 ft 563 kts 96°
2026-04-22 21:44 30.79533 -101.48953 38929 ft 562 kts 96°
2026-04-22 21:44 30.78524 -101.39935 38935 ft 562 kts 97°
2026-04-22 21:45 30.77517 -101.30971 38943 ft 563 kts 97°
2026-04-22 21:45 30.76496 -101.21959 39021 ft 562 kts 97°
2026-04-22 21:46 30.75470 -101.12946 39012 ft 564 kts 97°
2026-04-22 21:46 30.74436 -101.03922 38998 ft 563 kts 97°
2026-04-22 21:47 30.73396 -100.94897 38982 ft 563 kts 97°
2026-04-22 21:47 30.72349 -100.85876 38990 ft 563 kts 97°
2026-04-22 21:48 30.71295 -100.76847 39011 ft 563 kts 97°
2026-04-22 21:48 30.70236 -100.67825 39026 ft 563 kts 97°
2026-04-22 21:49 30.69351 -100.60332 39027 ft 563 kts 97°
2026-04-22 21:49 30.68282 -100.51331 39018 ft 561 kts 97°
2026-04-22 21:50 30.67033 -100.40880 38995 ft 562 kts 97°
2026-04-22 21:50 30.66128 -100.33354 38974 ft 562 kts 97°
2026-04-22 21:51 30.65042 -100.24367 38945 ft 562 kts 97°
2026-04-22 21:52 30.63403 -100.10910 38956 ft 560 kts 97°
2026-04-22 21:52 30.62312 -100.02015 38978 ft 560 kts 97°
2026-04-22 21:53 30.61200 -99.93000 38997 ft 560 kts 97°
2026-04-22 21:53 30.60096 -99.84107 39016 ft 560 kts 97°
2026-04-22 21:54 30.58976 -99.75157 39017 ft 559 kts 98°
2026-04-22 21:54 30.57843 -99.66217 39005 ft 560 kts 98°
2026-04-22 21:55 30.56709 -99.57268 38989 ft 560 kts 98°
2026-04-22 21:55 30.55565 -99.48327 38973 ft 560 kts 98°
2026-04-22 21:56 30.54419 -99.39402 38954 ft 558 kts 98°
2026-04-22 21:56 30.53267 -99.30483 38953 ft 559 kts 98°
2026-04-22 21:57 30.52108 -99.21560 38961 ft 559 kts 98°
2026-04-22 21:57 30.50943 -99.12641 38961 ft 559 kts 98°
2026-04-22 21:58 30.49776 -99.03752 38965 ft 555 kts 98°
2026-04-22 21:58 30.48607 -98.94899 38965 ft 556 kts 98°
2026-04-22 21:59 30.47432 -98.86046 38973 ft 556 kts 98°
2026-04-22 21:59 30.46258 -98.77249 38980 ft 556 kts 98°
2026-04-22 22:00 30.45071 -98.68395 38985 ft 557 kts 98°
2026-04-22 22:00 30.43872 -98.59504 38990 ft 558 kts 98°
2026-04-22 22:01 30.42669 -98.50631 38990 ft 558 kts 98°
2026-04-22 22:01 30.41460 -98.41760 38994 ft 557 kts 98°
2026-04-22 22:02 30.40246 -98.32893 39002 ft 558 kts 98°
2026-04-22 22:02 30.39027 -98.24043 38999 ft 556 kts 98°
2026-04-22 22:03 30.37802 -98.15193 39028 ft 556 kts 98°
2026-04-22 22:03 30.36571 -98.06344 39030 ft 557 kts 98°
2026-04-22 22:04 30.35342 -97.97555 39036 ft 556 kts 98°
2026-04-22 22:04 30.34107 -97.88760 39027 ft 552 kts 99°
2026-04-22 22:05 30.32866 -97.79981 38983 ft 553 kts 99°
2026-04-22 22:05 30.31621 -97.71201 38977 ft 553 kts 99°
2026-04-22 22:06 30.30369 -97.62428 38975 ft 553 kts 99°
2026-04-22 22:06 30.29111 -97.53652 38973 ft 552 kts 99°
2026-04-22 22:07 30.27848 -97.44886 38982 ft 552 kts 99°
2026-04-22 22:07 30.26579 -97.36117 38981 ft 553 kts 99°
2026-04-22 22:08 30.25304 -97.27354 38967 ft 553 kts 99°
2026-04-22 22:08 30.24022 -97.18583 38968 ft 553 kts 99°
2026-04-22 22:09 30.22736 -97.09826 39020 ft 553 kts 99°
2026-04-22 22:09 30.21444 -97.01071 39032 ft 553 kts 99°
2026-04-22 22:10 30.20154 -96.92372 39017 ft 552 kts 99°
2026-04-22 22:10 30.18848 -96.83612 39011 ft 553 kts 99°
2026-04-22 22:11 30.17534 -96.74838 38970 ft 554 kts 99°
2026-04-22 22:11 30.16215 -96.66066 38917 ft 554 kts 99°
2026-04-22 22:12 30.14888 -96.57289 38868 ft 554 kts 99°
2026-04-22 22:12 30.13557 -96.48524 38852 ft 554 kts 99°
2026-04-22 22:13 30.12219 -96.39749 38858 ft 555 kts 99°
2026-04-22 22:13 30.10874 -96.30973 38842 ft 555 kts 99°
2026-04-22 22:14 30.09525 -96.22209 38833 ft 555 kts 99°
2026-04-22 22:14 30.08169 -96.13444 38838 ft 554 kts 99°
2026-04-22 22:15 30.06808 -96.04683 38903 ft 555 kts 99°
2026-04-22 22:15 30.05439 -95.95916 38932 ft 555 kts 99°
2026-04-22 22:16 30.04063 -95.87139 38969 ft 555 kts 99°
2026-04-22 22:16 30.02683 -95.78374 39010 ft 555 kts 100°
2026-04-22 22:17 30.01296 -95.69609 39001 ft 555 kts 100°
2026-04-22 22:17 29.99906 -95.60860 39030 ft 554 kts 100°
2026-04-22 22:18 29.98510 -95.52117 39026 ft 555 kts 100°
2026-04-22 22:18 29.97107 -95.43361 39034 ft 555 kts 100°
2026-04-22 22:19 29.95700 -95.34597 39037 ft 555 kts 99°
2026-04-22 22:19 29.94569 -95.25802 39032 ft 554 kts 98°
2026-04-22 22:20 29.93432 -95.17066 39044 ft 555 kts 98°
2026-04-22 22:20 29.92292 -95.08271 39061 ft 555 kts 98°
2026-04-22 22:21 29.91140 -94.99472 39043 ft 554 kts 98°
2026-04-22 22:21 29.89986 -94.90691 39056 ft 552 kts 98°
2026-04-22 22:22 29.88831 -94.81941 39053 ft 553 kts 98°
2026-04-22 22:22 29.87668 -94.73183 39054 ft 553 kts 98°
2026-04-22 22:23 29.86500 -94.64433 39059 ft 553 kts 98°
2026-04-22 22:23 29.85325 -94.55677 39064 ft 553 kts 98°
2026-04-22 22:24 29.84152 -94.46975 39059 ft 554 kts 98°
2026-04-22 22:24 29.82964 -94.38214 39059 ft 554 kts 98°
2026-04-22 22:25 29.81770 -94.29451 39061 ft 554 kts 98°
2026-04-22 22:25 29.80572 -94.20700 39055 ft 553 kts 98°
2026-04-22 22:26 29.79362 -94.11923 39062 ft 556 kts 99°
2026-04-22 22:26 29.78146 -94.03128 39064 ft 556 kts 99°
2026-04-22 22:27 29.76923 -93.94331 39072 ft 556 kts 99°
2026-04-22 22:27 29.75689 -93.85504 39066 ft 559 kts 99°
2026-04-22 22:28 29.74448 -93.76670 39076 ft 561 kts 98°
2026-04-22 22:28 29.73197 -93.67804 39078 ft 561 kts 98°
2026-04-22 22:29 29.71941 -93.58950 39081 ft 561 kts 98°
2026-04-22 22:29 29.70677 -93.50079 39084 ft 561 kts 99°
2026-04-22 22:30 29.69407 -93.41218 39079 ft 561 kts 99°
2026-04-22 22:30 29.68141 -93.32421 39085 ft 561 kts 99°
2026-04-22 22:31 29.66859 -93.23558 39082 ft 561 kts 99°
2026-04-22 22:31 29.65572 -93.14706 39085 ft 561 kts 99°
2026-04-22 22:32 29.64280 -93.05858 39088 ft 561 kts 99°
2026-04-22 22:32 29.62980 -92.97004 39099 ft 561 kts 99°
2026-04-22 22:33 29.61676 -92.88154 39101 ft 561 kts 99°
2026-04-22 22:33 29.60363 -92.79305 39101 ft 562 kts 99°
2026-04-22 22:34 29.59046 -92.70460 39100 ft 562 kts 99°
2026-04-22 22:34 29.57722 -92.61623 39101 ft 561 kts 99°
2026-04-22 22:35 29.56395 -92.52790 39095 ft 561 kts 99°
2026-04-22 22:35 29.55061 -92.43965 39096 ft 561 kts 99°
2026-04-22 22:36 29.53729 -92.35187 39102 ft 561 kts 99°
2026-04-22 22:36 29.52383 -92.26358 39102 ft 561 kts 99°
2026-04-22 22:37 29.51031 -92.17536 39087 ft 562 kts 99°
2026-04-22 22:37 29.49674 -92.08712 39087 ft 561 kts 99°
2026-04-22 22:38 29.48309 -91.99889 39090 ft 561 kts 99°
2026-04-22 22:38 29.46940 -91.91065 39091 ft 562 kts 99°
2026-04-22 22:39 29.45566 -91.82258 39099 ft 561 kts 100°
2026-04-22 22:39 29.44419 -91.74934 39100 ft 561 kts 100°
2026-04-22 22:40 29.43035 -91.66134 39105 ft 561 kts 100°
2026-04-22 22:40 29.41645 -91.57334 39105 ft 561 kts 100°
2026-04-22 22:41 29.40248 -91.48530 39105 ft 562 kts 100°
2026-04-22 22:41 29.38844 -91.39723 39106 ft 562 kts 100°
2026-04-22 22:42 29.37434 -91.30916 39111 ft 562 kts 100°
2026-04-22 22:42 29.36019 -91.22108 39112 ft 562 kts 100°
2026-04-22 22:43 29.34597 -91.13307 39114 ft 562 kts 100°
2026-04-22 22:43 29.33164 -91.04470 39114 ft 564 kts 100°
2026-04-22 22:44 29.31723 -90.95620 39113 ft 565 kts 100°
2026-04-22 22:44 29.30276 -90.86774 39113 ft 565 kts 100°
2026-04-22 22:45 29.28824 -90.77939 39114 ft 565 kts 100°
2026-04-22 22:45 29.27375 -90.69156 39117 ft 564 kts 100°
2026-04-22 22:46 29.25903 -90.60271 39123 ft 564 kts 100°
2026-04-22 22:46 29.24445 -90.51509 39107 ft 565 kts 101°
2026-04-22 22:47 29.22964 -90.42647 39115 ft 567 kts 101°
2026-04-22 22:47 29.21477 -90.33784 39117 ft 565 kts 101°
2026-04-22 22:48 29.19989 -90.24954 39114 ft 565 kts 101°
2026-04-22 22:48 29.18494 -90.16121 39114 ft 565 kts 101°
2026-04-22 22:49 29.16904 -90.07310 39113 ft 565 kts 103°
2026-04-22 22:49 29.15109 -89.98554 39117 ft 565 kts 103°
2026-04-22 22:50 29.13334 -89.89798 39116 ft 565 kts 103°
2026-04-22 22:50 29.11549 -89.81110 39113 ft 565 kts 103°
2026-04-22 22:51 29.09756 -89.72361 39110 ft 565 kts 103°
2026-04-22 22:51 29.07952 -89.63625 39115 ft 565 kts 103°
2026-04-22 22:52 29.06148 -89.54892 39116 ft 565 kts 103°
2026-04-22 22:52 29.04333 -89.46157 39124 ft 565 kts 103°
2026-04-22 22:53 29.02516 -89.37429 39127 ft 564 kts 103°
2026-04-22 22:53 29.00693 -89.28706 39124 ft 564 kts 103°
2026-04-22 22:54 28.98864 -89.19990 39128 ft 563 kts 103°
2026-04-22 22:54 28.97037 -89.11306 39128 ft 563 kts 103°
2026-04-22 22:55 28.95216 -89.02682 39115 ft 563 kts 103°
2026-04-22 22:55 28.92432 -88.89556 39125 ft 569 kts 103°
2026-04-22 22:56 28.90561 -88.80772 39126 ft 572 kts 104°
2026-04-22 22:56 28.88676 -88.71951 39129 ft 572 kts 104°
2026-04-22 22:57 28.86413 -88.63256 39123 ft 572 kts 108°
2026-04-22 22:57 28.83971 -88.54625 39130 ft 572 kts 107°
2026-04-22 22:58 28.81610 -88.45957 39129 ft 571 kts 108°
2026-04-22 22:58 28.79183 -88.37367 39128 ft 569 kts 108°
2026-04-22 22:59 28.76806 -88.28753 39134 ft 569 kts 108°
2026-04-22 22:59 28.74400 -88.20224 39134 ft 569 kts 108°
2026-04-22 23:00 28.72001 -88.11632 39137 ft 569 kts 108°
2026-04-22 23:00 28.69589 -88.03085 39137 ft 564 kts 108°
2026-04-22 23:01 28.67188 -87.94568 39140 ft 565 kts 108°
2026-04-22 23:01 28.64777 -87.86051 39143 ft 565 kts 108°
2026-04-22 23:02 28.62344 -87.77476 39137 ft 574 kts 109°
2026-04-22 23:02 28.59879 -87.68812 39145 ft 574 kts 109°
2026-04-22 23:03 28.57426 -87.60210 39149 ft 572 kts 109°
2026-04-22 23:03 28.54964 -87.51603 39151 ft 572 kts 109°
2026-04-22 23:04 28.52495 -87.42991 39153 ft 572 kts 109°
2026-04-22 23:04 28.50020 -87.34384 39155 ft 572 kts 109°
2026-04-22 23:05 28.47543 -87.25792 39152 ft 571 kts 109°
2026-04-22 23:05 28.45078 -87.17265 39150 ft 571 kts 109°
2026-04-22 23:06 28.42591 -87.08683 39161 ft 572 kts 109°
2026-04-22 23:06 28.40097 -87.00101 39157 ft 572 kts 109°
2026-04-22 23:07 28.37600 -86.91529 39160 ft 574 kts 109°
2026-04-22 23:07 28.35084 -86.82916 39163 ft 575 kts 109°
2026-04-22 23:08 28.32562 -86.74303 39148 ft 576 kts 110°
2026-04-22 23:08 28.30021 -86.65631 39144 ft 579 kts 110°
2026-04-22 23:09 28.27498 -86.56947 39147 ft 580 kts 110°
2026-04-22 23:09 28.24963 -86.48311 39167 ft 581 kts 110°
2026-04-22 23:10 28.22415 -86.39603 39154 ft 581 kts 110°
2026-04-22 23:10 28.19855 -86.30914 39165 ft 581 kts 110°
2026-04-22 23:11 28.17295 -86.22223 39165 ft 581 kts 110°
2026-04-22 23:11 28.14724 -86.13535 39169 ft 584 kts 110°
2026-04-22 23:12 28.12142 -86.04819 39172 ft 583 kts 110°
2026-04-22 23:12 28.09553 -85.96112 39170 ft 583 kts 110°
2026-04-22 23:13 28.06961 -85.87412 39174 ft 583 kts 110°
2026-04-22 23:13 28.04362 -85.78714 39164 ft 583 kts 110°
2026-04-22 23:14 28.01761 -85.70028 39163 ft 583 kts 110°
2026-04-22 23:14 27.99152 -85.61341 39134 ft 583 kts 111°
2026-04-22 23:15 27.96533 -85.52644 39155 ft 584 kts 111°
2026-04-22 23:15 27.93908 -85.43945 39153 ft 584 kts 111°
2026-04-22 23:16 27.91273 -85.35245 39153 ft 585 kts 111°
2026-04-22 23:16 27.88656 -85.26532 39148 ft 586 kts 109°
2026-04-22 23:17 27.86983 -85.17504 39157 ft 588 kts 100°
2026-04-22 23:17 27.85536 -85.08418 39163 ft 587 kts 103°
2026-04-22 23:18 27.83935 -84.99362 39166 ft 589 kts 101°
2026-04-22 23:18 27.83226 -84.94853 38690 ft 575 kts 101°
2026-04-22 23:18 27.82497 -84.90469 37898 ft 560 kts 102°
2026-04-22 23:19 27.81745 -84.86214 37171 ft 545 kts 102°
2026-04-22 23:19 27.81301 -84.82067 36467 ft 534 kts 93°
2026-04-22 23:19 27.81350 -84.77888 35783 ft 531 kts 86°
2026-04-22 23:19 27.81659 -84.73734 35094 ft 532 kts 84°
2026-04-22 23:20 27.81987 -84.69561 34392 ft 534 kts 86°
2026-04-22 23:20 27.82146 -84.65357 33649 ft 535 kts 89°
2026-04-22 23:20 27.82246 -84.61161 32944 ft 535 kts 88°
2026-04-22 23:20 27.82456 -84.56979 32237 ft 533 kts 85°
2026-04-22 23:21 27.82725 -84.52802 31533 ft 532 kts 85°
2026-04-22 23:21 27.82925 -84.48631 30834 ft 531 kts 87°
2026-04-22 23:21 27.83067 -84.44483 30119 ft 525 kts 87°
2026-04-22 23:21 27.83243 -84.40405 29401 ft 515 kts 86°
2026-04-22 23:22 27.83459 -84.36376 28724 ft 510 kts 86°
2026-04-22 23:22 27.83654 -84.32403 28056 ft 504 kts 86°
2026-04-22 23:22 27.83813 -84.28467 27397 ft 499 kts 87°
2026-04-22 23:22 27.83975 -84.24568 26741 ft 494 kts 86°
2026-04-22 23:23 27.84158 -84.20715 26096 ft 488 kts 86°
2026-04-22 23:23 27.84337 -84.16904 25427 ft 483 kts 86°
2026-04-22 23:23 27.84498 -84.13137 24823 ft 478 kts 86°
2026-04-22 23:23 27.84652 -84.09456 24206 ft 473 kts 86°
2026-04-22 23:24 27.84817 -84.05719 23545 ft 468 kts 86°
2026-04-22 23:24 27.84977 -84.02116 22929 ft 462 kts 86°
2026-04-22 23:24 27.85132 -83.98507 22322 ft 457 kts 86°
2026-04-22 23:24 27.85282 -83.94937 21724 ft 453 kts 86°
2026-04-22 23:25 27.85447 -83.91399 21112 ft 448 kts 84°
2026-04-22 23:25 27.85774 -83.87922 20629 ft 444 kts 83°
2026-04-22 23:25 27.86030 -83.84456 20126 ft 440 kts 84°
2026-04-22 23:25 27.86266 -83.81023 19625 ft 436 kts 84°
2026-04-22 23:26 27.86553 -83.77628 19129 ft 432 kts 83°
2026-04-22 23:26 27.86856 -83.74258 18636 ft 429 kts 83°
2026-04-22 23:26 27.87123 -83.70922 18111 ft 424 kts 84°
2026-04-22 23:26 27.87373 -83.67616 17621 ft 420 kts 84°
2026-04-22 23:27 27.87636 -83.64345 17141 ft 416 kts 83°
2026-04-22 23:27 27.87906 -83.61103 16669 ft 412 kts 83°
2026-04-22 23:27 27.88164 -83.57897 16199 ft 408 kts 84°
2026-04-22 23:27 27.88413 -83.54717 15734 ft 404 kts 84°
2026-04-22 23:28 27.88663 -83.51568 15276 ft 401 kts 84°
2026-04-22 23:28 27.88913 -83.48449 14819 ft 397 kts 84°
2026-04-22 23:28 27.89076 -83.46389 14518 ft 395 kts 84°
2026-04-22 23:28 27.89319 -83.43306 14068 ft 391 kts 84°
2026-04-22 23:29 27.89558 -83.40260 13589 ft 387 kts 84°
2026-04-22 23:29 27.89872 -83.36268 13002 ft 382 kts 84°
2026-04-22 23:29 27.90105 -83.33291 12572 ft 379 kts 84°
2026-04-22 23:29 27.90335 -83.30339 12135 ft 375 kts 84°
2026-04-22 23:30 27.90489 -83.28360 11845 ft 372 kts 84°
2026-04-22 23:30 27.90711 -83.25499 11425 ft 369 kts 84°
2026-04-22 23:30 27.90930 -83.22682 11019 ft 348 kts 84°
2026-04-22 23:30 27.91136 -83.20028 10490 ft 331 kts 84°
2026-04-22 23:31 27.91520 -83.16705 9949 ft 308 kts 72°
2026-04-22 23:31 27.92091 -83.15279 9961 ft 297 kts 62°
2026-04-22 23:31 27.93046 -83.13164 10005 ft 310 kts 62°
2026-04-22 23:31 27.94061 -83.10860 10017 ft 345 kts 62°
2026-04-22 23:32 27.95145 -83.08406 10012 ft 353 kts 62°
2026-04-22 23:32 27.96254 -83.05918 10006 ft 352 kts 62°
2026-04-22 23:32 27.97303 -83.03563 10002 ft 318 kts 62°
2026-04-22 23:32 27.98264 -83.01398 9993 ft 306 kts 62°
2026-04-22 23:33 27.99210 -82.99269 9991 ft 302 kts 62°
2026-04-22 23:33 28.00157 -82.97138 9935 ft 304 kts 62°
2026-04-22 23:33 28.01099 -82.95015 9736 ft 300 kts 62°
2026-04-22 23:33 28.02028 -82.92918 9491 ft 297 kts 62°
2026-04-22 23:34 28.02950 -82.90839 9240 ft 292 kts 63°
2026-04-22 23:34 28.03853 -82.88800 8994 ft 289 kts 63°
2026-04-22 23:34 28.04751 -82.86773 8746 ft 287 kts 63°
2026-04-22 23:34 28.05638 -82.84767 8499 ft 283 kts 64°
2026-04-22 23:35 28.06219 -82.82669 8172 ft 278 kts 85°
2026-04-22 23:35 28.06265 -82.80505 7991 ft 275 kts 89°
2026-04-22 23:35 28.06309 -82.78349 7768 ft 273 kts 88°
2026-04-22 23:35 28.06374 -82.76199 7532 ft 274 kts 89°
2026-04-22 23:36 28.06434 -82.74056 7289 ft 271 kts 89°
2026-04-22 23:36 28.06486 -82.71930 7049 ft 269 kts 89°
2026-04-22 23:36 28.06539 -82.69810 6811 ft 267 kts 89°
2026-04-22 23:36 28.06593 -82.67710 6573 ft 266 kts 89°
2026-04-22 23:37 28.06653 -82.65624 6325 ft 265 kts 88°
2026-04-22 23:37 28.07157 -82.63631 6019 ft 267 kts 62°
2026-04-22 23:37 28.08380 -82.62066 5794 ft 269 kts 39°
2026-04-22 23:37 28.10097 -82.61231 5567 ft 271 kts 13°
2026-04-22 23:38 28.11921 -82.61142 5391 ft 252 kts
2026-04-22 23:38 28.13596 -82.61161 5181 ft 231 kts
2026-04-22 23:38 28.15152 -82.60991 4908 ft 227 kts 23°
2026-04-22 23:38 28.16267 -82.59840 4884 ft 218 kts 65°
2026-04-22 23:39 28.16605 -82.58180 5003 ft 217 kts 83°
2026-04-22 23:39 28.16792 -82.56490 4958 ft 210 kts 84°
2026-04-22 23:39 28.16981 -82.54852 4226 ft 214 kts 84°
2026-04-22 23:39 28.17007 -82.53177 3554 ft 211 kts 99°
2026-04-22 23:40 28.16248 -82.51758 2905 ft 215 kts 142°
2026-04-22 23:40 28.14832 -82.51426 2854 ft 218 kts 186°
2026-04-22 23:40 28.13563 -82.52345 2866 ft 226 kts 227°
2026-04-22 23:40 28.12436 -82.53567 2583 ft 224 kts 205°
2026-04-22 23:41 28.11007 -82.53854 2383 ft 195 kts 171°
2026-04-22 23:41 28.09779 -82.53458 2186 ft 176 kts 158°
2026-04-22 23:41 28.08681 -82.52895 1887 ft 172 kts 153°
2026-04-22 23:41 28.07520 -82.52581 1731 ft 175 kts 171°
2026-04-22 23:42 28.06303 -82.52576 1512 ft 172 kts 178°
2026-04-22 23:42 28.05186 -82.52603 1283 ft 147 kts 178°
2026-04-22 23:42 28.04235 -82.52640 1100 ft 131 kts 177°
2026-04-22 23:42 28.03335 -82.52664 941 ft 129 kts 177°
2026-04-22 23:43 28.02426 -82.52710 773 ft 130 kts 178°
2026-04-22 23:43 28.01546 -82.52738 603 ft 126 kts 175°
2026-04-22 23:43 28.00666 -82.52760 454 ft 129 kts 176°
2026-04-22 23:43 27.99752 -82.52790 317 ft 134 kts 178°
2026-04-22 23:44 27.98814 -82.52822 105 ft 131 kts 178°
2026-04-22 23:44 27.97939 -82.52850 36 ft 115 kts 180°
2026-04-22 23:44 27.97353 -82.52870 34 ft 53 kts 181°
2026-04-22 23:44 27.97062 -82.52877 32 ft 25 kts 181°
2026-04-22 23:45 27.96957 -82.52858 34 ft 11 kts 130°
2026-04-22 23:45 27.96947 -82.52793 37 ft 6 kts 92°
2026-04-22 23:45 27.96931 -82.52763 38 ft 7 kts 148°
2026-04-22 23:45 27.96876 -82.52762 38 ft 10 kts 183°
2026-04-22 23:46 27.96780 -82.52764 38 ft 12 kts 182°
2026-04-22 23:46 27.96739 -82.52718 39 ft 9 kts 84°
2026-04-22 23:46 27.96748 -82.52655 39 ft 8 kts 82°
2026-04-22 23:46 27.96757 -82.52600 39 ft 6 kts 71°
2026-04-22 23:47 27.96758 -82.52596 39 ft 0 kts 69°